| time (UTC) | temp F | wind direction | speed knots | gust knots | rain 1hr in | rain 24hr in | rain mn in | humidity % | barometer mb |
| 20260902141502 | 73 | 360 | 4.3 | 11.3 | 0.00 | 0.00 | 0.00 | 68 | 1018.7 |
| 20260902140100 | 72 | 360 | 8.7 | 15.6 | 0.00 | 0.00 | 0.00 | 67 | 1018.8 |
| 20260902134600 | 72 | 360 | 4.3 | 11.3 | 0.00 | 0.00 | 0.00 | 71 | 1018.9 |
| 20260902133059 | 71 | 360 | 3.5 | 8.7 | 0.00 | 0.00 | 0.00 | 74 | 1019.0 |
| 20260902131554 | 69 | 360 | 3.5 | 7.8 | 0.00 | 0.00 | 0.00 | 76 | 1019.0 |
| 20260902130054 | 69 | 360 | 3.5 | 9.6 | 0.00 | 0.00 | 0.00 | 77 | 1019.0 |
| 20260902124555 | 68 | 360 | 4.3 | 8.7 | 0.00 | 0.00 | 0.00 | 78 | 1018.9 |
| 20260902123059 | 68 | 360 | 5.2 | 8.7 | 0.00 | 0.00 | 0.00 | 79 | 1019.0 |
| 20260902121607 | 68 | 360 | 5.2 | 7.8 | 0.00 | 0.00 | 0.00 | 77 | 1019.1 |
| 20260902114610 | 70 | 360 | 3.5 | 7.0 | 0.00 | 0.00 | 0.00 | 74 | 1019.0 |
| 20260902113059 | 71 | 360 | 3.5 | 9.6 | 0.00 | 0.00 | 0.00 | 71 | 1019.1 |
| 20260902111600 | 71 | 83 | 3.5 | 7.8 | 0.00 | 0.00 | 0.00 | 74 | 1019.2 |
| 20260902110054 | 71 | 360 | 5.2 | 11.3 | 0.00 | 0.00 | 0.00 | 76 | 1019.1 |
| 20260902104547 | 70 | 360 | 4.3 | 9.6 | 0.00 | 0.00 | 0.00 | 78 | 1019.2 |
| 20260902103047 | 69 | 360 | 6.1 | 10.4 | 0.00 | 0.00 | 0.00 | 80 | 1019.3 |
| 20260902101539 | 68 | 360 | 1.7 | 9.6 | 0.00 | 0.00 | 0.00 | 82 | 1019.2 |
| 20260902100038 | 68 | 360 | 6.1 | 9.6 | 0.00 | 0.00 | 0.00 | 81 | 1019.2 |
| 20260902094536 | 67 | 360 | 4.3 | 8.7 | 0.00 | 0.00 | 0.00 | 83 | 1019.1 |
| 20260902093033 | 66 | 360 | 3.5 | 11.3 | 0.00 | 0.00 | 0.00 | 84 | 1019.2 |
| 20260902091540 | 66 | 360 | 3.5 | 8.7 | 0.00 | 0.00 | 0.00 | 84 | 1019.3 |
| 20260902090028 | 65 | 360 | 2.6 | 8.7 | 0.00 | 0.00 | 0.00 | 84 | 1019.0 |
| 20260902084528 | 65 | 360 | 2.6 | 8.7 | 0.00 | 0.00 | 0.00 | 84 | 1018.8 |
| 20260902083029 | 65 | 360 | 3.5 | 7.0 | 0.00 | 0.00 | 0.00 | 85 | 1018.8 |
| 20260902081528 | 64 | 360 | 3.5 | 8.7 | 0.00 | 0.00 | 0.00 | 85 | 1018.8 |
| 20260902080022 | 63 | 360 | 0.9 | 7.8 | 0.00 | 0.00 | 0.00 | 86 | 1018.7 |
| 20260902074524 | 63 | 360 | 2.6 | 7.8 | 0.00 | 0.00 | 0.00 | 86 | 1018.5 |
| 20260902073018 | 63 | 360 | 4.3 | 7.0 | 0.00 | 0.00 | 0.00 | 86 | 1018.6 |
| 20260902071514 | 61 | 360 | 4.3 | 7.0 | 0.00 | 0.00 | 0.00 | 88 | 1018.7 |
| 20260902070010 | 60 | 360 | 5.2 | 7.8 | 0.00 | 0.00 | 0.00 | 88 | 1018.6 |
| 20260902064507 | 59 | 360 | 1.7 | 6.1 | 0.00 | 0.00 | 0.00 | 90 | 1018.5 |
| 20260902063013 | 58 | 360 | 1.7 | 7.0 | 0.00 | 0.00 | 0.00 | 90 | 1018.5 |
| 20260902061501 | 58 | 360 | 2.6 | 5.2 | 0.00 | 0.00 | 0.00 | 91 | 1018.5 |
| 20260902060104 | 57 | 360 | 1.7 | 5.2 | 0.00 | 0.00 | 0.00 | 91 | 1018.5 |
| 20260902054556 | 57 | 360 | 3.5 | 7.0 | 0.00 | 0.00 | 0.00 | 91 | 1018.3 |
| 20260902053102 | 56 | 360 | 2.6 | 5.2 | 0.00 | 0.00 | 0.00 | 90 | 1018.4 |
| 20260902051555 | 56 | 360 | 2.6 | 5.2 | 0.00 | 0.00 | 0.00 | 90 | 1018.3 |
| 20260902050048 | 56 | 360 | 2.6 | 5.2 | 0.00 | 0.00 | 0.00 | 90 | 1018.3 |
| 20260902044547 | 56 | 360 | 0.9 | 4.3 | 0.00 | 0.00 | 0.00 | 90 | 1018.2 |
| 20260902043047 | 57 | 360 | 0.9 | 4.3 | 0.00 | 0.00 | 0.00 | 90 | 1018.2 |
| 20260902041545 | 57 | 360 | 1.7 | 5.2 | 0.00 | 0.00 | 0.00 | 90 | 1018.2 |
| 20260902040043 | 57 | 360 | 1.7 | 5.2 | 0.00 | 0.00 | 0.00 | 89 | 1018.3 |
| 20260902034558 | 57 | 360 | 0.9 | 5.2 | 0.00 | 0.00 | 0.00 | 89 | 1018.4 |
| 20260902033046 | 57 | 360 | 0.9 | 5.2 | 0.00 | 0.00 | 0.00 | 89 | 1018.4 |
| 20260902031541 | 58 | 360 | 1.7 | 4.3 | 0.00 | 0.00 | 0.00 | 88 | 1018.5 |
| 20260902030041 | 58 | 360 | 0.0 | 3.5 | 0.00 | 0.00 | 0.00 | 88 | 1018.5 |
| 20260902024542 | 58 | 360 | 0.0 | 4.3 | 0.00 | 0.00 | 0.00 | 88 | 1018.6 |
| 20260902023043 | 58 | 360 | 2.6 | 5.2 | 0.00 | 0.00 | 0.00 | 89 | 1018.7 |
| 20260902021538 | 57 | 360 | 0.0 | 3.5 | 0.00 | 0.00 | 0.00 | 89 | 1018.9 |
| 20260902020043 | 57 | 360 | 0.9 | 3.5 | 0.00 | 0.00 | 0.00 | 88 | 1018.8 |
| 20260902014539 | 57 | 360 | 0.0 | 3.5 | 0.00 | 0.00 | 0.00 | 89 | 1018.8 |
| 20260902013040 | 57 | 360 | 0.9 | 5.2 | 0.00 | 0.00 | 0.00 | 89 | 1018.9 |
| 20260902011536 | 57 | 360 | 2.6 | 5.2 | 0.00 | 0.00 | 0.00 | 90 | 1018.9 |
| 20260902010036 | 57 | 360 | 0.9 | 4.3 | 0.00 | 0.00 | 0.00 | 89 | 1018.8 |
| 20260902004534 | 57 | 360 | 0.9 | 3.5 | 0.00 | 0.00 | 0.00 | 89 | 1018.9 |
| 20260902003035 | 57 | 360 | 0.0 | 0.0 | 0.00 | 0.00 | 0.00 | 88 | 1019.0 |
| 20260902001544 | 57 | 360 | 0.0 | 0.0 | 0.00 | 0.00 | 0.00 | 88 | 1019.0 |
| 20260902000038 | 57 | 360 | 0.0 | 0.0 | 0.00 | 0.00 | 0.00 | 87 | 1019.0 |
| 20260901234528 | 57 | 360 | 0.0 | 3.5 | 0.00 | 0.00 | 0.00 | 87 | 1019.0 |
| 20260901233031 | 58 | 360 | 0.0 | 0.0 | 0.00 | 0.00 | 0.00 | 87 | 1019.2 |
| 20260901231524 | 58 | 360 | 0.0 | 0.0 | 0.00 | 0.00 | 0.00 | 86 | 1019.3 |
| 20260901230027 | 58 | 360 | 0.0 | 0.9 | 0.00 | 0.00 | 0.00 | 85 | 1019.4 |
| 20260901224527 | 59 | 360 | 0.0 | 0.0 | 0.00 | 0.00 | 0.00 | 85 | 1019.3 |
| 20260901223020 | 59 | 360 | 0.0 | 0.0 | 0.00 | 0.00 | 0.00 | 85 | 1019.4 |
| 20260901221517 | 59 | 360 | 0.0 | 0.0 | 0.00 | 0.00 | 0.00 | 84 | 1019.3 |
| 20260901220026 | 60 | 360 | 0.0 | 0.0 | 0.00 | 0.00 | 0.00 | 83 | 1019.2 |
| 20260901214515 | 60 | 360 | 0.0 | 0.0 | 0.00 | 0.00 | 0.00 | 83 | 1019.1 |
| 20260901213014 | 60 | 360 | 0.0 | 0.0 | 0.00 | 0.00 | 0.00 | 82 | 1019.5 |
| 20260901211523 | 60 | 360 | 0.9 | 1.7 | 0.00 | 0.00 | 0.00 | 81 | 1019.6 |
| 20260901210014 | 60 | 360 | 0.0 | 0.0 | 0.00 | 0.00 | 0.00 | 81 | 1019.6 |
| 20260901204520 | 61 | 360 | 0.0 | 0.0 | 0.00 | 0.00 | 0.00 | 79 | 1019.7 |
| 20260901203019 | 61 | 360 | 0.0 | 0.0 | 0.00 | 0.00 | 0.00 | 79 | 1019.7 |
| 20260901201512 | 61 | 360 | 0.0 | 3.5 | 0.00 | 0.00 | 0.00 | 79 | 1019.7 |
| 20260901200011 | 62 | 360 | 0.9 | 2.6 | 0.00 | 0.00 | 0.00 | 78 | 1019.6 |
| 20260901194509 | 62 | 360 | 0.0 | 0.0 | 0.00 | 0.00 | 0.00 | 77 | 1019.4 |
| 20260901193009 | 63 | 360 | 0.0 | 0.0 | 0.00 | 0.00 | 0.00 | 76 | 1019.2 |
| 20260901191509 | 63 | 360 | 0.0 | 0.0 | 0.00 | 0.00 | 0.00 | 74 | 1019.2 |
| 20260901190008 | 64 | 360 | 0.0 | 1.7 | 0.00 | 0.00 | 0.00 | 72 | 1019.4 |
| 20260901184510 | 64 | 360 | 0.9 | 4.3 | 0.00 | 0.00 | 0.00 | 71 | 1019.2 |
| 20260901183006 | 65 | 360 | 2.6 | 5.2 | 0.00 | 0.00 | 0.00 | 70 | 1019.2 |
| 20260901181512 | 66 | 360 | 2.6 | 5.2 | 0.00 | 0.00 | 0.00 | 69 | 1019.1 |
| 20260901180006 | 67 | 360 | 2.6 | 7.0 | 0.00 | 0.00 | 0.00 | 67 | 1019.2 |
| 20260901174505 | 67 | 360 | 5.2 | 8.7 | 0.00 | 0.00 | 0.00 | 66 | 1019.3 |
| 20260901173004 | 68 | 360 | 5.2 | 11.3 | 0.00 | 0.00 | 0.00 | 64 | 1019.1 |
| 20260901171504 | 68 | 360 | 5.2 | 10.4 | 0.00 | 0.00 | 0.00 | 64 | 1019.2 |
| 20260901170006 | 69 | 360 | 4.3 | 8.7 | 0.00 | 0.00 | 0.00 | 63 | 1019.1 |
| 20260901164504 | 69 | 360 | 2.6 | 9.6 | 0.00 | 0.00 | 0.00 | 63 | 1019.2 |
| 20260901163003 | 70 | 360 | 5.2 | 8.7 | 0.00 | 0.00 | 0.00 | 62 | 1019.0 |
| 20260901161602 | 70 | 360 | 4.3 | 10.4 | 0.00 | 0.00 | 0.00 | 62 | 1018.9 |
| 20260901160101 | 70 | 360 | 4.3 | 10.4 | 0.00 | 0.00 | 0.00 | 60 | 1018.9 |
| 20260901154609 | 70 | 360 | 5.2 | 10.4 | 0.00 | 0.00 | 0.00 | 60 | 1018.9 |
| 20260901153103 | 71 | 123 | 4.3 | 7.0 | 0.00 | 0.00 | 0.00 | 61 | 1018.8 |
| 20260901151600 | 71 | 360 | 4.3 | 8.7 | 0.00 | 0.00 | 0.00 | 59 | 1018.9 |
| 20260901150108 | 71 | 360 | 6.1 | 10.4 | 0.00 | 0.00 | 0.00 | 60 | 1018.8 |
| 20260901144557 | 70 | 360 | 6.1 | 12.2 | 0.00 | 0.00 | 0.00 | 60 | 1018.8 |
| 20260901143057 | 70 | 360 | 5.2 | 13.0 | 0.00 | 0.00 | 0.00 | 61 | 1018.8 |